• In Uzbekistan
  • List of Countries
  • For 7 days
  • Water Temperature
  • Satellite Maps
  • Weather Map
  • Weather Widgets
  • user-avatar
    Login

    Hourly Weather Algiers

    Today, 27 June, Tuesday

    Time Temperature Precipitation Wind Pressure Humidity
    00:00 +27°C° 0 mm 0 mps 746 mmHg 58%
    01:00 +27°C° 0 mm 0 mps 746 mmHg 57%
    02:00 +26°C° 0 mm 0 mps 746 mmHg 56%
    03:00 +26°C° 0 mm 0 mps 745 mmHg 55%
    04:00 +29°C° 0 mm 1 mps 745 mmHg 50%
    05:00 +31°C° 0 mm 2 mps 745 mmHg 46%
    06:00 +32°C° 0 mm 2 mps 745 mmHg 41%
    07:00 +36°C° 0 mm 2 mps 745 mmHg 35%
    08:00 +38°C° 0 mm 2 mps 745 mmHg 29%
    09:00 +42°C° 0 mm 3 mps 745 mmHg 23%
    10:00 +42°C° 0 mm 3 mps 745 mmHg 23%
    11:00 +43°C° 0 mm 3 mps 745 mmHg 23%
    12:00 +43°C° 0 mm 4 mps 745 mmHg 23%
    13:00 +42°C° 0.1 mm 3 mps 744 mmHg 26%
    14:00 +39°C° 0.1 mm 3 mps 744 mmHg 30%
    15:00 +38°C° 0.1 mm 3 mps 744 mmHg 34%
    16:00 +37°C° 0 mm 3 mps 743 mmHg 37%
    17:00 +36°C° 0 mm 2 mps 743 mmHg 40%
    18:00 +35°C° 0 mm 2 mps 743 mmHg 43%
    19:00 +34°C° 0 mm 2 mps 743 mmHg 45%
    20:00 +33°C° 0 mm 3 mps 744 mmHg 48%
    21:00 +31°C° 0 mm 3 mps 744 mmHg 51%
    22:00 +31°C° 0 mm 3 mps 744 mmHg 49%
    23:00 +32°C° 0 mm 4 mps 744 mmHg 46%

    Tomorrow, 28 June, Wednesday

    Time Temperature Precipitation Wind Pressure Humidity
    00:00 +32°C° 0 mm 5 mps 745 mmHg 44%
    01:00 +30°C° 0 mm 5 mps 745 mmHg 44%
    02:00 +29°C° 0 mm 6 mps 744 mmHg 44%
    03:00 +29°C° 0 mm 6 mps 744 mmHg 43%
    04:00 +29°C° 0 mm 6 mps 745 mmHg 42%
    05:00 +29°C° 0 mm 6 mps 745 mmHg 41%
    06:00 +29°C° 0 mm 6 mps 745 mmHg 39%
    07:00 +32°C° 0 mm 7 mps 746 mmHg 34%
    08:00 +33°C° 0 mm 7 mps 746 mmHg 29%
    09:00 +35°C° 0 mm 7 mps 746 mmHg 25%
    10:00 +35°C° 0 mm 8 mps 746 mmHg 25%
    11:00 +37°C° 0 mm 8 mps 746 mmHg 26%
    12:00 +38°C° 0 mm 8 mps 746 mmHg 26%
    13:00 +37°C° 0 mm 8 mps 746 mmHg 28%
    14:00 +37°C° 0 mm 8 mps 745 mmHg 31%
    15:00 +35°C° 0 mm 8 mps 745 mmHg 33%
    16:00 +34°C° 0 mm 8 mps 745 mmHg 35%
    17:00 +33°C° 0 mm 7 mps 745 mmHg 37%
    18:00 +32°C° 0 mm 7 mps 745 mmHg 39%
    19:00 +29°C° 0 mm 6 mps 745 mmHg 44%
    20:00 +27°C° 0 mm 6 mps 746 mmHg 48%
    21:00 +25°C° 0 mm 5 mps 746 mmHg 53%
    22:00 +25°C° 0 mm 5 mps 746 mmHg 50%
    23:00 +25°C° 0 mm 5 mps 746 mmHg 47%

    Day after tomorrow, 29 June, Thursday

    Time Temperature Precipitation Wind Pressure Humidity
    00:00 +23°C° 0 mm 4 mps 746 mmHg 43%
    01:00 +23°C° 0 mm 4 mps 746 mmHg 42%
    02:00 +23°C° 0 mm 4 mps 746 mmHg 40%
    03:00 +22°C° 0 mm 4 mps 745 mmHg 38%
    04:00 +23°C° 0 mm 4 mps 746 mmHg 37%
    05:00 +25°C° 0 mm 4 mps 746 mmHg 37%
    06:00 +26°C° 0 mm 4 mps 746 mmHg 36%
    07:00 +28°C° 0 mm 5 mps 746 mmHg 36%
    08:00 +29°C° 0 mm 5 mps 746 mmHg 37%
    09:00 +32°C° 0 mm 5 mps 746 mmHg 37%
    10:00 +33°C° 0 mm 5 mps 746 mmHg 35%
    11:00 +34°C° 0 mm 6 mps 746 mmHg 33%
    12:00 +35°C° 0 mm 6 mps 746 mmHg 31%
    13:00 +35°C° 0 mm 6 mps 746 mmHg 35%
    14:00 +34°C° 0 mm 6 mps 745 mmHg 39%
    15:00 +34°C° 0 mm 6 mps 745 mmHg 43%
    16:00 +32°C° 0 mm 5 mps 745 mmHg 50%
    17:00 +30°C° 0 mm 5 mps 745 mmHg 57%
    18:00 +28°C° 0 mm 4 mps 744 mmHg 64%
    19:00 +27°C° 0 mm 3 mps 745 mmHg 69%
    20:00 +26°C° 0 mm 3 mps 745 mmHg 74%
    21:00 +24°C° 0 mm 2 mps 746 mmHg 79%
    22:00 +24°C° 0 mm 2 mps 745 mmHg 82%
    23:00 +24°C° 0 mm 1 mps 745 mmHg 84%

    30 June, Friday

    Time Temperature Precipitation Wind Pressure Humidity
    00:00 +23°C° 0 mm 1 mps 745 mmHg 87%
    01:00 +23°C° 0 mm 1 mps 745 mmHg 87%
    02:00 +22°C° 0 mm 1 mps 744 mmHg 87%
    03:00 +22°C° 0 mm 1 mps 744 mmHg 87%
    04:00 +23°C° 0 mm 1 mps 744 mmHg 81%
    05:00 +24°C° 0 mm 1 mps 744 mmHg 75%
    06:00 +25°C° 0 mm 1 mps 745 mmHg 69%
    07:00 +26°C° 0 mm 1 mps 745 mmHg 58%
    08:00 +28°C° 0 mm 2 mps 745 mmHg 48%
    09:00 +30°C° 0 mm 2 mps 745 mmHg 38%
    10:00 +31°C° 0 mm 2 mps 745 mmHg 34%
    11:00 +33°C° 0 mm 3 mps 745 mmHg 31%
    12:00 +34°C° 0 mm 3 mps 745 mmHg 28%
    13:00 +34°C° 0 mm 4 mps 745 mmHg 30%
    14:00 +33°C° 0 mm 5 mps 745 mmHg 32%
    15:00 +33°C° 0 mm 5 mps 745 mmHg 35%
    16:00 +32°C° 0 mm 5 mps 746 mmHg 38%
    17:00 +29°C° 0 mm 5 mps 746 mmHg 41%
    18:00 +28°C° 0 mm 5 mps 746 mmHg 45%
    19:00 +26°C° 0 mm 4 mps 747 mmHg 54%
    20:00 +24°C° 0 mm 3 mps 748 mmHg 63%
    21:00 +21°C° 0 mm 2 mps 749 mmHg 73%
    22:00 +21°C° 0 mm 2 mps 749 mmHg 76%
    23:00 +20°C° 0 mm 2 mps 748 mmHg 79%

    1 July, Saturday

    Time Temperature Precipitation Wind Pressure Humidity
    00:00 +20°C° 0 mm 1 mps 748 mmHg 83%
    01:00 +19°C° 0 mm 2 mps 748 mmHg 83%
    02:00 +19°C° 0 mm 2 mps 748 mmHg 83%
    03:00 +19°C° 0 mm 2 mps 748 mmHg 83%
    04:00 +20°C° 0 mm 2 mps 748 mmHg 79%
    05:00 +21°C° 0 mm 2 mps 749 mmHg 75%
    06:00 +23°C° 0 mm 2 mps 749 mmHg 71%
    07:00 +25°C° 0 mm 2 mps 749 mmHg 61%
    08:00 +27°C° 0 mm 2 mps 750 mmHg 50%
    09:00 +28°C° 0 mm 3 mps 750 mmHg 40%
    10:00 +29°C° 0 mm 3 mps 750 mmHg 37%
    11:00 +30°C° 0 mm 4 mps 750 mmHg 34%
    12:00 +32°C° 0 mm 4 mps 750 mmHg 31%
    13:00 +32°C° 0 mm 5 mps 749 mmHg 32%
    14:00 +32°C° 0 mm 5 mps 749 mmHg 32%
    15:00 +30°C° 0 mm 5 mps 749 mmHg 33%
    16:00 +29°C° 0 mm 5 mps 750 mmHg 37%
    17:00 +28°C° 0 mm 4 mps 750 mmHg 40%
    18:00 +27°C° 0 mm 4 mps 750 mmHg 44%
    19:00 +25°C° 0 mm 4 mps 751 mmHg 53%
    20:00 +24°C° 0 mm 3 mps 751 mmHg 61%
    21:00 +21°C° 0 mm 3 mps 752 mmHg 69%
    22:00 +20°C° 0 mm 2 mps 752 mmHg 73%
    23:00 +20°C° 0 mm 2 mps 751 mmHg 77%

    2 July, Sunday

    Time Temperature Precipitation Wind Pressure Humidity
    00:00 +19°C° 0 mm 2 mps 751 mmHg 81%
    01:00 +18°C° 0 mm 2 mps 751 mmHg 83%
    02:00 +18°C° 0 mm 2 mps 751 mmHg 84%
    03:00 +18°C° 0 mm 2 mps 751 mmHg 85%
    04:00 +19°C° 0 mm 2 mps 751 mmHg 80%
    05:00 +20°C° 0 mm 2 mps 751 mmHg 75%
    06:00 +21°C° 0 mm 2 mps 751 mmHg 70%
    07:00 +24°C° 0 mm 3 mps 752 mmHg 61%
    08:00 +26°C° 0 mm 3 mps 752 mmHg 51%
    09:00 +28°C° 0 mm 4 mps 752 mmHg 41%
    10:00 +29°C° 0 mm 4 mps 752 mmHg 39%
    11:00 +30°C° 0 mm 5 mps 751 mmHg 37%
    12:00 +32°C° 0 mm 5 mps 751 mmHg 35%
    13:00 +32°C° 0 mm 6 mps 751 mmHg 36%
    14:00 +32°C° 0 mm 6 mps 751 mmHg 37%
    15:00 +32°C° 0 mm 7 mps 751 mmHg 39%
    16:00 +30°C° 0 mm 7 mps 751 mmHg 44%
    17:00 +28°C° 0 mm 7 mps 751 mmHg 50%
    18:00 +27°C° 0 mm 7 mps 751 mmHg 55%
    19:00 +26°C° 0 mm 7 mps 751 mmHg 63%
    20:00 +23°C° 0 mm 6 mps 751 mmHg 72%
    21:00 +21°C° 0 mm 6 mps 752 mmHg 80%
    22:00 +21°C° 0 mm 6 mps 752 mmHg 83%
    23:00 +20°C° 0 mm 6 mps 751 mmHg 85%
    Show more